[TLELIST] Archives

 

[list_settings.list_name] Current TLEs

September 18th 2014 PDT

HST 1 20580U 90037B 14260.14219856 .00003065 00000-0 19479-3 0 1127 2 20580 028.4698 152.5176 0002909 187.0819 298.6454 15.05745462138598 ISS (ZARYA) 1 25544U 98067A 14261.23801446 .00018591 00000-0 32825-3 0 1036 2 25544 051.6475 358.3858 0002361 110.9951 286.5700 15.50404752905766 CXO 1 25867U 99040B 14263.10369274 .00000396 00000-0 00000+0 0 749 2 25867 076.9918 316.9571 7972661 272.9180 000.4144 00.37798461 12279 ____________________________________________________________________ These 2-Line ...Continue Reading

[list_settings.list_name] Current TLEs

September 17th 2014 PDT

HST 1 20580U 90037B 14260.14219856 .00003065 00000-0 19479-3 0 1127 2 20580 028.4698 152.5176 0002909 187.0819 298.6454 15.05745462138598 ISS (ZARYA) 1 25544U 98067A 14260.41419823 .00018301 00000-0 32364-3 0 990 2 25544 051.6468 002.4717 0002313 110.2063 006.2703 15.50372445905632 CXO 1 25867U 99040B 14263.10369274 .00000396 00000-0 00000+0 0 749 2 25867 076.9918 316.9571 7972661 272.9180 000.4144 00.37798461 12279 ____________________________________________________________________ These 2-Line ...Continue Reading

[list_settings.list_name] Current TLEs

September 16th 2014 PDT

HST 1 20580U 90037B 14259.08306248 .00002824 00000-0 17862-3 0 1115 2 20580 028.4698 159.4834 0002958 175.2532 317.8986 15.05739347138432 ISS (ZARYA) 1 25544U 98067A 14259.50982444 .00018020 00000-0 31918-3 0 938 2 25544 051.6465 006.9518 0002367 113.4731 352.1080 15.50337899905492 CXO 1 25867U 99040B 14260.45968242 .00000402 00000-0 00000+0 0 731 2 25867 076.9853 317.0456 7975421 272.9803 000.4264 00.37798788 12264 ____________________________________________________________________ These 2-Line ...Continue Reading

[list_settings.list_name] Current TLEs

September 15th 2014 PDT

HST 1 20580U 90037B 14257.22695948 .00003056 00000-0 19431-3 0 1108 2 20580 028.4696 171.6907 0003021 154.9951 336.9890 15.05731256138154 ISS (ZARYA) 1 25544U 98067A 14257.89681862 .00064354 00000-0 11141-2 0 888 2 25544 051.6454 014.9479 0002537 105.8682 351.4158 15.50308892905246 CXO 1 25867U 99040B 14260.45968242 .00000402 00000-0 00000+0 0 731 2 25867 076.9853 317.0456 7975421 272.9803 000.4264 00.37798788 12264 ____________________________________________________________________ These 2-Line ...Continue Reading

[list_settings.list_name] Current TLEs

September 14th 2014 PDT

HST 1 20580U 90037B 14256.16801137 .00003995 00000-0 25765-3 0 1096 2 20580 028.4696 178.6553 0003071 143.1178 357.3706 15.05724910137997 ISS (ZARYA) 1 25544U 98067A 14257.18190521 .00024032 00000-0 41905-3 0 844 2 25544 051.6484 018.4878 0003799 104.7149 320.1315 15.50581148905131 CXO 1 25867U 99040B 14257.81550530 .00000337 00000-0 00000+0 0 720 2 25867 076.9748 317.1515 7979683 273.0308 000.4207 00.37803277 12256 ____________________________________________________________________ These 2-Line ...Continue Reading

[list_settings.list_name] Current TLEs

September 13th 2014 PDT

HST 1 20580U 90037B 14256.16801137 .00003995 00000-0 25765-3 0 1096 2 20580 028.4696 178.6553 0003071 143.1178 357.3706 15.05724910137997 ISS (ZARYA) 1 25544U 98067A 14255.96415632 .00020203 00000-0 35455-3 0 806 2 25544 051.6483 024.5264 0003698 102.9287 359.9630 15.50514579904940 CXO 1 25867U 99040B 14257.81550530 .00000337 00000-0 00000+0 0 720 2 25867 076.9748 317.1515 7979683 273.0308 000.4207 00.37803277 12256 ____________________________________________________________________ These 2-Line ...Continue Reading

[list_settings.list_name] Current TLEs

September 12th 2014 PDT

HST 1 20580U 90037B 14254.24786861 .00003288 00000-0 21002-3 0 1083 2 20580 028.4698 191.2833 0003159 123.4304 028.2031 15.05710928137708 ISS (ZARYA) 1 25544U 98067A 14255.31639958 .00028296 00000-0 49320-3 0 754 2 25544 051.6494 027.7474 0003984 100.2904 344.5624 15.50497364904849 CXO 1 25867U 99040B 14255.16869307 .00000255 00000-0 00000+0 0 719 2 25867 076.9740 317.2663 7983039 273.0733 000.0596 00.37804564 12241 ____________________________________________________________________ These 2-Line ...Continue Reading

[list_settings.list_name] Current TLEs

September 11th 2014 PDT

HST 1 20580U 90037B 14252.90286422 .00002571 00000-0 16168-3 0 1072 2 20580 028.4701 200.1286 0003216 109.8023 296.7640 15.05705013137498 ISS (ZARYA) 1 25544U 98067A 14254.41756192 .00031773 00000-0 55338-3 0 697 2 25544 051.6441 032.2057 0003655 082.6522 021.8387 15.50457599904705 CXO 1 25867U 99040B 14255.17300775 .00000255 00000-0 00000+0 0 708 2 25867 076.9738 317.2662 7983019 273.0732 000.6445 00.37804653 12242 ____________________________________________________________________ These 2-Line ...Continue Reading

[list_settings.list_name] Current TLEs

September 10th 2014 PDT

HST 1 20580U 90037B 14252.90286422 .00002571 00000-0 16168-3 0 1072 2 20580 028.4701 200.1286 0003216 109.8023 296.7640 15.05705013137498 ISS (ZARYA) 1 25544U 98067A 14253.38409208 .00021821 00000-0 38376-3 0 635 2 25544 051.6482 037.3148 0003979 100.2257 352.1657 15.50401612904545 CXO 1 25867U 99040B 14255.17300775 .00000255 00000-0 00000+0 0 708 2 25867 076.9738 317.2662 7983019 273.0732 000.6445 00.37804653 12242 ____________________________________________________________________ These 2-Line ...Continue Reading

[list_settings.list_name] Current TLEs

September 9th 2014 PDT

HST 1 20580U 90037B 14251.32658653 .00002383 00000-0 14906-3 0 1064 2 20580 028.4702 210.4945 0003249 094.2515 031.1860 15.05697623137261 ISS (ZARYA) 1 25544U 98067A 14252.47721753 .00013398 00000-0 23927-3 0 553 2 25544 051.6461 041.8067 0003604 088.3309 339.0982 15.50360654904401 CXO 1 25867U 99040B 14252.52851459 .00000328 00000-0 00000+0 0 693 2 25867 076.9823 317.3466 7987875 273.1307 000.6050 00.37802790 12234 ____________________________________________________________________ These 2-Line ...Continue Reading
  • This mailing list is a public mailing list - anyone may join or leave, at any time.
  • This mailing list is announce-only.

International Space Station (ISS) / Hubble Space Telescope (HST) / Chandra X-Ray Observatory Orbital Data via EMAIL

Privacy Policy:

Private list